Home > Time Zones > World Clock > Weather > U.S.A. > Knox > Past weeks

Flag for U.S.A. Weather past 2 weeks in Knox, Indiana, U.S.A.

Now
27 °F

Clear.


Feels Like: 22 °F
Forecast: 24 / 33 °F
Wind: 5 mph from Southwest

Location: Porter County Municipal Airport

Current Time: Dec 28, 2014 at 6:22:54 PM

Latest Report: Dec 28, 2014 at 5:56 PM


Visibility: 10 mi

Pressure: 30.22 "Hg

Humidity: 69%

Dew point: 18 °F

Location of KnoxLocation

Historic Weather in Knox — Graph

°F

Knox temperature yesterday

Maximum temperature yesterday: 48 °F (at 12:56 PM)
Minimum temperature yesterday: 33 °F (at 7:56 PM)
Average temperature yesterday: 41 °F

Past Weeks' High & Low Weather Summary

 TemperatureHumidityPressure
High51 °F (Dec 26, 12:56 PM)100% (Dec 14, 10:56 PM)30.35 "Hg (Dec 14, 10:56 PM)
Low22 °F (Dec 18, 4:56 PM)54% (Dec 28, 2:56 PM)29.49 "Hg (Dec 24, 1:56 PM)
Average36 °F85%30.04 "Hg
* Reported Dec 13 4:56 PM — Dec 28 4:56 PM, Knox, Weather by CustomWeather, © 2014

Note: Actual official high and low records may vary slightly from our data, if they occured in-between our weather recording intervals... More about our weather records

Advertising

Knox weather history for previous 24 hours

 ConditionsComfort  
Time TempWeatherWind HumidityBarometerVisibility
4:56 PM
Dec 28
28 °FClear.6 mph69%30.22 "Hg10 mi
3:56 PM32 °FClear.7 mph64%30.21 "Hg10 mi
2:56 PM33 °FSunny.5 mph54%30.20 "Hg10 mi
1:56 PM33 °FSunny.7 mph61%30.18 "Hg10 mi
12:56 PM32 °FSunny.8 mph69%30.17 "Hg10 mi
11:56 AM32 °FSunny.5 mph73%30.18 "Hg10 mi
10:56 AM29 °FPassing clouds.6 mph79%30.21 "Hg10 mi
9:56 AM28 °FSunny.7 mph78%30.23 "Hg10 mi
8:56 AM28 °FSunny.8 mph78%30.21 "Hg10 mi
8:04 AM28 °FScattered clouds.8 mph78%30.17 "Hg10 mi
7:56 AM28 °FPartly sunny.7 mph81%30.19 "Hg10 mi
6:56 AM29 °FOvercast.9 mph82%30.16 "Hg10 mi
5:56 AM30 °FOvercast.6 mph79%30.17 "Hg10 mi
4:56 AM30 °FOvercast.7 mph79%30.16 "Hg10 mi
3:56 AM30 °FOvercast.8 mph79%30.14 "Hg10 mi
2:56 AM30 °FOvercast.10 mph82%30.13 "Hg10 mi
1:56 AM32 °FOvercast.9 mph75%30.13 "Hg10 mi
12:56 AM32 °FOvercast.8 mph79%30.11 "Hg10 mi
11:56 PM
Dec 27
33 °FOvercast.8 mph72%30.10 "Hg10 mi
10:56 PM33 °FOvercast.6 mph75%30.11 "Hg10 mi
9:56 PM33 °FOvercast.9 mph78%30.12 "Hg10 mi
8:56 PM33 °FOvercast.10 mph78%30.11 "Hg10 mi
7:56 PM33 °FOvercast.9 mph78%30.11 "Hg10 mi
6:56 PM34 °FOvercast.15 mph79%30.10 "Hg10 mi
Weather by CustomWeather, © 2014

See weather overviewHow to use our weather pages